User: anonymous   Login
Location: Albany
(35.0000°S, 118.0000°E)
Time: 18:13:09
(UTC-04:00)
Language:

Cosmos 1758 Rocket - Orbit

View from above orbital plane
View from above orbital plane
View from above satellite
View from above satellite

Ground track
Ground track

The orbit data is extracted from the following two-line orbital elements,

1 16792U 86046B   16272.08668817  .00000161  00000-0  16676-4 0  9999
2 16792  82.4799  89.0225 0025764  77.0154  36.5097 14.83090470636034
Epoch (UTC): 28 September 2016 02:04:49
Eccentricity: 0.0025764
inclination: 82.4799°
perigee height: 601 km
apogee height: 637 km
right ascension of ascending node: 89.0225°
argument of perigee: 77.0154°
revolutions per day: 14.83090470
mean anomaly at epoch: 36.5097°
orbit number at epoch: 63603

The dashed part of the orbit path shows where the satellite is in the earth's shadow,  

DLR